Date String (YYYY-MM-DD hh:mm:ss) UTC,Instrument flags,absolute air pressure of the measurement (hPa),sample flow rate (lpm),inlet stack bypass flow (lpm),air temperature of the measurement (°C),ambient temperature measured by the external sensor (°C),aerosol sample conditioner tube jacket temperature (°C),OPC LED temperature (°C),internal box temperature (°C),relative humidity of the measurement (%),span deviation,mass concentration of particles derived from Lorenz-Mie calculation of OPC scattering (μg/m³),mass concentration of particles derived from Lorenz-Mie calculation of OPC scattering (μg/m³),mass concentration of particles derived from Lorenz-Mie calculation of OPC scattering (μg/m³)
DateTimeUTC,F1_M11,P_M11,Q1_M11,Q2_M11,T1_M11,T2_M11,T3_M11,T4_M11,T5_M11,U1_M11,ZSPAN_M11,X2_M11,X0_M11,X1_M11
2023-09-21 19:00:00,SystemResetWarning,0828.3,5.01,000.00,027.7,025.8,000.0,036.0,029.2,23.9,0000.0,0003.66,0010.27,0002.66
2023-09-21 19:01:00,SystemResetWarning,0828.3,5.00,000.00,027.7,026.0,000.0,036.0,029.3,23.7,0000.0,0003.64,0010.64,0002.67
2023-09-21 19:02:00,SystemResetWarning,0828.3,5.00,000.00,027.8,026.3,000.0,036.1,029.4,23.4,0000.0,0003.71,0011.62,0002.67
2023-09-21 19:03:00,SystemResetWarning,0828.3,5.00,000.00,027.8,026.5,000.0,036.1,029.4,23.4,0000.0,0003.72,0011.42,0002.67
2023-09-21 19:04:00,SystemResetWarning,0828.3,4.99,000.00,027.8,026.7,000.0,036.1,029.5,22.9,0000.0,0003.78,0011.17,0002.71
2023-09-21 19:05:00,SystemResetWarning,0828.3,5.00,000.00,027.9,026.8,000.0,036.1,029.6,22.8,0000.0,0003.85,0011.35,0002.75
2023-09-21 19:06:00,SystemResetWarning,0828.3,4.98,000.00,027.9,025.9,000.0,036.1,029.4,23.4,0000.0,0003.91,0011.62,0002.75
2023-09-21 19:07:00,SystemResetWarning,0828.3,5.01,000.00,027.8,024.3,000.0,036.1,029.0,24.1,0000.0,0003.98,0011.93,0002.75
2023-09-21 19:08:00,SystemResetWarning,0828.3,5.00,000.00,027.7,024.0,000.0,036.0,028.9,24.4,0000.0,0004.03,0011.55,0002.77
2023-09-21 19:09:00,SystemResetWarning,0828.4,5.01,000.00,027.6,024.3,000.0,036.0,028.9,23.9,0000.0,0004.05,0012.18,0002.79
2023-09-21 19:10:00,SystemResetWarning,0828.3,5.00,000.00,027.6,024.7,000.0,036.0,029.0,24.0,0000.0,0004.05,0013.20,0002.79
2023-09-21 19:11:00,SystemResetWarning,0828.3,5.00,000.00,027.6,025.1,000.0,036.0,029.0,24.0,0000.0,0004.01,0012.99,0002.79
2023-09-21 19:12:00,SystemResetWarning,0828.4,5.00,000.00,027.6,025.5,000.0,036.0,029.2,24.0,0000.0,0004.02,0013.62,0002.79
2023-09-21 19:13:00,SystemResetWarning,0828.4,5.00,000.00,027.6,025.8,000.0,036.0,029.2,23.7,0000.0,0004.00,0013.72,0002.81
2023-09-21 19:14:00,SystemResetWarning,0828.4,5.00,000.00,027.7,026.1,000.0,036.0,029.3,23.5,0000.0,0004.02,0014.68,0002.82
2023-09-21 19:15:00,SystemResetWarning,0828.4,4.99,000.00,027.7,026.3,000.0,036.0,029.4,23.6,0000.0,0004.04,0015.45,0002.82
2023-09-21 19:16:00,SystemResetWarning,0828.4,4.99,000.00,027.8,026.5,000.0,036.0,029.4,23.2,0000.0,0004.03,0015.65,0002.81
2023-09-21 19:17:00,SystemResetWarning,0828.4,5.00,000.00,027.8,026.7,000.0,036.1,029.5,23.0,0000.0,0004.03,0015.91,0002.83
2023-09-21 19:18:00,SystemResetWarning,0828.4,5.00,000.00,027.9,026.8,000.0,036.1,029.6,23.1,0000.0,0003.98,0016.15,0002.82
2023-09-21 19:19:00,SystemResetWarning,0828.4,5.00,000.00,027.8,025.6,000.0,036.1,029.2,23.0,0000.0,0003.93,0016.04,0002.82
2023-09-21 19:20:00,SystemResetWarning,0828.4,5.00,000.00,027.7,024.2,000.0,036.0,028.8,22.9,0000.0,0003.92,0016.76,0002.83
2023-09-21 19:21:00,SystemResetWarning,0828.3,5.01,000.00,027.6,024.1,000.0,036.0,028.9,22.8,0000.0,0003.92,0016.30,0002.85
2023-09-21 19:22:00,SystemResetWarning,0828.3,5.01,000.00,027.5,024.4,000.0,036.0,028.9,23.1,0000.0,0003.92,0015.97,0002.87
2023-09-21 19:23:00,SystemResetWarning,0828.3,5.00,000.00,027.5,024.7,000.0,036.0,028.9,23.1,0000.0,0003.93,0015.31,0002.87
2023-09-21 19:24:00,SystemResetWarning,0828.4,5.00,000.00,027.5,025.1,000.0,036.0,029.0,23.0,0000.0,0003.95,0015.30,0002.87
2023-09-21 19:25:00,SystemResetWarning,0828.3,4.99,000.00,027.5,025.5,000.0,036.0,029.1,23.2,0000.0,0003.92,0014.95,0002.87
2023-09-21 19:26:00,SystemResetWarning,0828.3,4.99,000.00,027.6,025.8,000.0,036.0,029.2,23.5,0000.0,0003.84,0014.42,0002.86
2023-09-21 19:27:00,SystemResetWarning,0828.3,5.00,000.00,027.6,026.1,000.0,036.0,029.3,23.2,0000.0,0003.74,0014.25,0002.84
2023-09-21 19:28:00,SystemResetWarning,0828.3,5.00,000.00,027.7,026.3,000.0,036.0,029.3,22.9,0000.0,0003.74,0014.80,0002.85
2023-09-21 19:29:00,SystemResetWarning,0828.3,5.01,000.00,027.7,026.5,000.0,036.0,029.4,22.9,0000.0,0003.73,0015.25,0002.86
2023-09-21 19:30:00,SystemResetWarning,0828.3,5.01,000.00,027.8,026.7,000.0,036.0,029.5,22.7,0000.0,0003.77,0016.00,0002.86
2023-09-21 19:31:00,SystemResetWarning,0828.3,5.00,000.00,027.8,026.8,000.0,036.0,029.6,22.8,0000.0,0003.77,0015.07,0002.84
2023-09-21 19:32:00,SystemResetWarning,0828.3,4.99,000.00,027.9,026.7,000.0,036.1,029.6,22.7,0000.0,0003.74,0013.92,0002.81
2023-09-21 19:33:00,SystemResetWarning,0828.3,4.99,000.00,027.8,025.2,000.0,036.0,029.1,22.7,0000.0,0003.72,0013.63,0002.78
2023-09-21 19:34:00,SystemResetWarning,0828.3,5.01,000.00,027.7,023.9,000.0,036.0,028.8,22.7,0000.0,0003.72,0013.67,0002.78
2023-09-21 19:35:00,SystemResetWarning,0828.2,5.00,000.00,027.6,023.9,000.0,035.9,028.8,22.9,0000.0,0003.71,0013.34,0002.78
2023-09-21 19:36:00,SystemResetWarning,0828.2,5.01,000.00,027.5,024.2,000.0,035.9,028.9,23.0,0000.0,0003.72,0012.35,0002.76
2023-09-21 19:37:00,SystemResetWarning,0828.2,4.99,000.00,027.5,024.6,000.0,035.9,028.9,23.3,0000.0,0003.75,0012.28,0002.77
2023-09-21 19:38:00,SystemResetWarning,0828.2,5.00,000.00,027.5,025.0,000.0,035.9,029.0,22.7,0000.0,0003.82,0012.08,0002.76
2023-09-21 19:39:00,SystemResetWarning,0828.2,5.00,000.00,027.5,025.4,000.0,035.9,029.1,22.9,0000.0,0003.86,0011.52,0002.75
2023-09-21 19:40:00,SystemResetWarning,0828.2,5.01,000.00,027.6,025.7,000.0,035.9,029.1,22.3,0000.0,0003.86,0010.74,0002.74
2023-09-21 19:41:00,SystemResetWarning,0828.2,4.99,000.00,027.6,026.0,000.0,035.9,029.2,22.0,0000.0,0003.85,0011.11,0002.74
2023-09-21 19:42:00,SystemResetWarning,0828.2,5.00,000.00,027.6,026.3,000.0,035.9,029.3,22.1,0000.0,0003.88,0010.90,0002.75
2023-09-21 19:43:00,SystemResetWarning,0828.2,4.99,000.00,027.7,026.5,000.0,036.0,029.4,22.6,0000.0,0003.92,0011.54,0002.76
2023-09-21 19:44:00,SystemResetWarning,0828.2,5.00,000.00,027.7,026.6,000.0,036.0,029.5,22.0,0000.0,0003.94,0012.29,0002.78
2023-09-21 19:45:00,SystemResetWarning,0828.2,5.01,000.00,027.8,026.8,000.0,036.0,029.5,22.1,0000.0,0003.92,0012.64,0002.78
2023-09-21 19:46:00,SystemResetWarning,0828.2,4.99,000.00,027.8,026.9,000.0,036.1,029.6,22.4,0000.0,0003.90,0012.05,0002.78
2023-09-21 19:47:00,SystemResetWarning,0828.2,4.99,000.00,027.9,026.0,000.0,036.0,029.4,22.1,0000.0,0003.89,0012.21,0002.78
2023-09-21 19:48:00,SystemResetWarning,0828.2,5.00,000.00,027.7,024.3,000.0,036.0,028.9,22.4,0000.0,0003.88,0012.44,0002.75
2023-09-21 19:49:00,SystemResetWarning,0828.2,5.00,000.00,027.6,023.9,000.0,035.9,028.8,22.0,0000.0,0003.85,0012.56,0002.75
2023-09-21 19:50:00,SystemResetWarning,0828.2,5.01,000.00,027.6,024.2,000.0,035.9,028.9,22.2,0000.0,0003.81,0012.95,0002.75
2023-09-21 19:51:00,SystemResetWarning,0828.2,5.01,000.00,027.5,024.6,000.0,035.9,028.9,21.9,0000.0,0003.81,0013.01,0002.77
2023-09-21 19:52:00,SystemResetWarning,0828.2,5.00,000.00,027.5,025.0,000.0,035.9,029.0,22.0,0000.0,0003.88,0012.25,0002.78
2023-09-21 19:53:00,SystemResetWarning,0828.2,4.99,000.00,027.5,025.3,000.0,035.9,029.1,21.9,0000.0,0003.89,0012.17,0002.78
2023-09-21 19:54:00,SystemResetWarning,0828.2,5.00,000.00,027.6,025.7,000.0,035.9,029.2,22.5,0000.0,0003.88,0012.00,0002.79
2023-09-21 19:55:00,SystemResetWarning,0828.2,5.01,000.00,027.6,026.0,000.0,036.0,029.2,22.5,0000.0,0003.88,0011.79,0002.80
2023-09-21 19:56:00,SystemResetWarning,0828.2,5.00,000.00,027.7,026.2,000.0,036.0,029.3,22.4,0000.0,0003.90,0011.91,0002.79
2023-09-21 19:57:00,SystemResetWarning,0828.2,4.99,000.00,027.7,026.5,000.0,036.0,029.4,21.5,0000.0,0003.91,0012.27,0002.79
2023-09-21 19:58:00,SystemResetWarning,0828.2,5.00,000.00,027.8,026.6,000.0,036.0,029.5,20.7,0000.0,0003.88,0012.24,0002.79
2023-09-21 19:59:00,SystemResetWarning,0828.2,5.01,000.00,027.8,026.8,000.0,036.0,029.5,20.8,0000.0,0003.92,0012.23,0002.82
